Location: *
(33.8649°S, 62.1526°E)
Time: 03:55:36
(UTC+00:00)

SL-08 RB Rocket - Pass Details

Date: 17 January 2021
Orbit: 647 x 684 km, 97.8° (Epoch: 27 February)

Event Time Altitude Azimuth Distance (km) Brightness Sun altitude
Rises 15:59:35 0° 169° (S) 3,082 7.5 -10.7°
Reaches altitude 10° 16:01:51 10° 169° (S) 2,158 6.6 -11.1°
Maximum altitude 16:06:36 87° 257° (WSW) 696 3.8 -11.9°
Drops below altitude 10° 16:11:15 10° 346° (NNW) 2,119 6.1 -12.7°
Sets 16:13:28 0° 346° (NNW) 3,022 6.9 -13.1°
